[[{"header":{"parameterUnit":"m.s-1","parameterCategory":1,"la1":30.2991,"la2":30.254,"lo1":-89.0895,"lo2":-89.0444,"dy":0.0017,"dx":0.0017,"nx":28,"ny":28,"refTime":"2024-07-20T03:00:00:Z","depth":0,"parameterNumber":2,"parameterNumberName":"U-component_of_WINDS"},"data":[0,0,0,0,0,0,0,0,0,0,0,0,0,0,0,0,0,0,0,0,0,0,0,0,0,0,0,0,0,0,0,0,0,0,0,0,0,0,0,0,0,0,0,0,0,0,0,0,0,0,0,0,0,0,0,0,0,0,2.81,2.8102,0,2.8211,2.8212,2.8213,2.8195,2.8194,2.8192,2.819,2.831,2.8314,2.8319,0,0,0,0,0,0,0,0,0,0,0,0,0,2.7879,2.7883,2.81,2.8102,2.8103,2.821,2.8212,2.8213,2.8196,2.8193,2.8191,2.8189,2.8308,2.8314,2.832,0,0,0,0,0,0,0,0,0,0,0,0,0,2.7981,2.7885,2.81,2.8107,2.8109,2.821,2.8212,2.8214,2.8196,2.8193,2.8191,2.8188,2.8306,2.8313,2.8321,2.8424,0,0,2.8343,2.8347,0,0,0,0,0,0,0,0,2.7975,2.7989,2.8105,2.8107,2.8109,2.8186,2.8178,2.8285,2.8197,2.8163,2.819,2.8186,2.8271,2.8281,2.8309,2.843,2.8435,2.8344,2.8349,2.8352,2.8354,0,0,0,0,0,0,0,2.7968,2.7984,2.8144,2.8106,2.8109,2.8106,2.8117,2.8198,2.8232,2.8166,2.8165,2.8178,2.8272,2.8301,2.8311,2.8437,2.8344,2.835,2.8355,2.8358,2.8645,2.8648,0,0,0,0,0,0,2.7958,2.7979,2.8141,2.8147,2.8033,2.8112,2.8125,2.8164,2.8231,2.8239,2.818,2.8177,2.829,2.8303,2.8315,2.8439,2.8352,2.8359,2.8363,2.8642,2.8646,2.8649,0,0,0,0,0,0,2.7954,2.7973,2.8136,2.8063,2.8083,2.8119,2.8164,2.8168,2.8197,2.8242,2.8249,2.8204,2.8288,2.8305,2.8396,2.8443,2.8362,2.8369,2.8638,2.8643,2.8648,2.8687,0,0,0,0,0,0,2.7947,2.7971,2.801,2.8064,2.8087,2.8214,2.8167,2.8172,2.821,2.8206,2.8266,2.8273,2.8287,2.8385,2.8403,2.8451,2.8375,2.8634,2.8641,2.8646,2.8682,2.8693,2.8702,0,0,0,0,0,2.794,2.8019,2.8012,2.8032,2.8136,2.8216,2.823,2.8243,2.8213,2.8253,2.8281,2.8271,2.8435,2.8394,2.8415,2.8466,2.8631,2.8639,2.8646,2.8678,2.8691,2.8702,0,0,0,0,0,0,2.7974,2.8027,2.8019,2.8119,2.8163,2.8213,2.8264,2.8257,2.8313,2.8307,2.8323,2.8337,2.8428,2.8457,2.8411,2.8568,2.8529,2.8541,2.8546,2.8559,2.8569,2.856,2.8381,0,0,0,0,0,2.7992,2.8051,2.8095,2.8178,2.8201,2.8228,2.8264,2.8269,2.8317,2.8336,2.8371,2.842,2.8481,2.8522,2.8582,2.8686,2.8698,2.8731,2.8741,2.8749,2.8759,2.8814,2.8828,2.8673,2.8673,2.8672,0,0,2.8033,2.8069,2.8106,2.8186,2.8221,2.8282,2.8244,2.8312,2.8358,2.8348,2.8434,2.8461,2.8516,2.8613,2.8658,2.864,2.8804,2.8758,2.8764,2.877,2.8823,2.8837,2.885,2.8677,2.8677,2.8676,0,0,2.8137,2.817,2.8241,2.8276,2.8328,2.8345,2.8362,2.8413,2.843,2.8517,2.8509,2.8565,2.8672,2.871,2.8744,2.8858,2.8851,2.8878,2.893,2.8983,2.8996,2.9006,2.9046,2.906,2.8887,2.8888,2.8888,0,2.8181,2.8271,2.828,2.8347,2.8382,2.8372,2.8444,2.8478,2.8549,2.8573,2.8551,2.8683,2.8719,2.8824,2.8851,2.888,2.8899,2.8871,2.8993,2.9004,2.9014,2.9051,2.9066,2.889,2.889,2.889,2.8889,0,2.8321,2.8384,2.8436,2.8499,2.854,2.861,2.863,2.8671,2.8673,2.8692,2.878,2.8823,2.8889,2.8915,2.8919,2.902,2.9006,2.8989,2.8949,2.9031,2.9067,2.9081,2.8894,2.8893,2.8892,2.8892,0,0,2.8452,2.8516,2.8535,2.8562,2.8617,2.8667,2.8736,2.8797,2.8831,2.888,2.8937,2.9026,2.9009,2.9047,2.9055,2.9102,2.9187,2.9078,2.9079,2.9095,2.9298,2.931,2.9327,2.9182,2.9185,2.9187,2.9293,0,2.856,2.8678,2.8686,2.8794,2.8851,2.884,2.89,2.8941,2.8961,2.9013,2.9037,2.9098,2.9072,2.9094,2.914,2.9167,2.9228,2.9159,2.9236,2.9239,2.9221,2.9346,2.936,2.9457,2.9307,2.931,2.9311,0,2.8702,2.8749,2.8861,2.8904,2.8929,2.8982,2.9038,2.9088,2.9134,2.9145,2.9185,2.9186,2.9257,2.9215,2.9313,2.9266,2.9298,2.9316,2.932,2.9327,2.9279,2.9355,2.9489,2.9503,2.9334,2.9332,2.933,0,2.8783,2.8876,2.8953,2.8977,2.9031,2.9068,2.9092,2.9135,2.9171,2.922,2.9243,2.9302,2.9334,2.938,2.9397,2.9365,2.9493,2.9454,2.9505,2.9504,2.9532,2.953,2.9672,2.9555,2.9555,2.9554,2.9554,0,2.8901,2.897,2.899,2.9038,2.9114,2.9123,2.9199,2.9222,2.9259,2.9312,2.9308,2.9358,2.9377,2.9431,2.9445,2.9522,2.9538,2.9549,2.9551,2.9548,2.9547,2.9569,2.9562,2.9558,2.9557,2.9557,2.9556,0,2.9005,2.9022,2.9105,2.9147,2.9159,2.9213,2.925,2.9296,2.9314,2.9381,2.9397,2.9426,2.9488,2.9509,2.9586,2.9595,2.9685,2.9683,2.9668,2.9669,2.9718,2.9712,2.9879,2.99,2.977,2.9771,2.9772,0,2.908,2.9131,2.9177,2.921,2.9235,2.9289,2.9324,2.9335,2.9372,2.9426,2.9466,2.9527,2.9576,2.9676,2.9705,2.9763,2.9761,2.9815,2.977,2.9764,2.976,2.9756,2.9761,2.9824,2.9825,2.9826,2.9827,0,2.9209,2.9213,2.9262,2.9313,2.9354,2.9396,2.9437,2.9465,2.9482,2.9524,2.9585,2.9623,2.9698,2.9759,2.9817,2.9844,2.9839,2.9841,2.9856,2.9853,2.9841,2.9846,2.969,2.9837,2.9836,2.9836,2.9835,2.9835,2.93,2.9343,2.9381,2.9435,2.9465,2.9502,2.9547,2.9568,2.9618,2.9678,2.9683,2.9749,2.9791,2.9868,2.9898,2.9951,2.9936,2.9958,2.9963,2.9968,2.997,2.9833,2.9962,2.9962,2.9961,2.9961,2.9961,0,2.9427,2.9449,2.9499,2.9553,2.9595,2.9583,2.9626,2.9663,2.972,2.9758,2.9805,2.9875,2.9932,2.9964,3.0022,3.0058,3.0057,3.0073,3.007,3.0076,2.9982,2.9962,3.0072,3.0072,3.0072,3.0072,3.0072,3.0072,2.9498,2.957,2.9579,2.9666,2.9689,2.9751,2.9776,2.981,2.984,2.9917,2.9963,2.9982,3.0018,3.0078,3.013,3.0138,3.0159,3.0176,3.0183,3.0094,3.0083,3.0072,3.0053,3.0181,3.0181,3.0272,3.0273,3.0274]},{"header":{"parameterUnit":"m.s-1","parameterCategory":1,"la1":30.2991,"la2":30.254,"lo1":-89.0895,"lo2":-89.0444,"dy":0.0017,"dx":0.0017,"nx":28,"ny":28,"refTime":"2024-07-20T03:00:00:Z","depth":0,"parameterNumber":3,"parameterNumberName":"V-component_of_WINDS"},"data":[0,0,0,0,0,0,0,0,0,0,0,0,0,0,0,0,0,0,0,0,0,0,0,0,0,0,0,0,0,0,0,0,0,0,0,0,0,0,0,0,0,0,0,0,0,0,0,0,0,0,0,0,0,0,0,0,0,0,0.5593,0.5593,0,0.5556,0.5555,0.5555,0.553,0.553,0.553,0.5529,0.549,0.549,0.5489,0,0,0,0,0,0,0,0,0,0,0,0,0,0.5641,0.564,0.5593,0.5593,0.5592,0.5556,0.5555,0.5555,0.553,0.553,0.5529,0.5529,0.5491,0.549,0.5489,0,0,0,0,0,0,0,0,0,0,0,0,0,0.5613,0.564,0.5593,0.5575,0.5573,0.5556,0.5555,0.5554,0.553,0.553,0.5529,0.5529,0.5491,0.549,0.5488,0.5485,0,0,0.5484,0.5484,0,0,0,0,0,0,0,0,0.5615,0.5612,0.5578,0.5577,0.5574,0.5547,0.5558,0.5531,0.553,0.5546,0.5529,0.5529,0.5509,0.5507,0.55,0.5483,0.5482,0.5484,0.5484,0.5483,0.5483,0,0,0,0,0,0,0,0.5617,0.5613,0.5578,0.5578,0.5575,0.5569,0.5564,0.5553,0.553,0.5545,0.5543,0.5539,0.5508,0.5501,0.5499,0.5481,0.5484,0.5483,0.5482,0.5482,0.5457,0.5457,0,0,0,0,0,0,0.5622,0.5615,0.5579,0.5577,0.5595,0.5568,0.5563,0.5556,0.553,0.5526,0.5539,0.5538,0.5504,0.5501,0.5498,0.549,0.5483,0.5482,0.5481,0.5457,0.5457,0.5457,0,0,0,0,0,0,0.5623,0.5619,0.5581,0.5595,0.559,0.5567,0.556,0.5555,0.5549,0.5526,0.5521,0.5537,0.5504,0.5499,0.5488,0.5489,0.5481,0.548,0.5457,0.5457,0.5457,0.5477,0,0,0,0,0,0,0.5625,0.562,0.5619,0.5596,0.5589,0.5573,0.556,0.5555,0.5546,0.5544,0.5522,0.5518,0.5503,0.549,0.5487,0.5487,0.5479,0.5457,0.5457,0.5457,0.5476,0.5478,0.548,0,0,0,0,0,0.5626,0.5626,0.5619,0.5615,0.5588,0.5573,0.5569,0.5552,0.5547,0.5545,0.553,0.5519,0.5489,0.5489,0.5485,0.5485,0.5456,0.5457,0.5457,0.5476,0.5478,0.548,0,0,0,0,0,0,0.5651,0.5623,0.5615,0.5607,0.5592,0.5569,0.5567,0.5555,0.5542,0.5541,0.552,0.5515,0.5505,0.5494,0.5494,0.5479,0.5471,0.5471,0.5487,0.5489,0.549,0.5493,0.5478,0,0,0,0,0,0.5655,0.5646,0.5622,0.5617,0.561,0.559,0.5583,0.557,0.5554,0.5548,0.5532,0.5516,0.5503,0.5495,0.5482,0.5474,0.5468,0.5472,0.5474,0.5475,0.5475,0.5468,0.5469,0.5458,0.5458,0.5458,0,0,0.5664,0.5648,0.5643,0.5622,0.5609,0.5599,0.5585,0.5575,0.5567,0.5547,0.5534,0.5522,0.5503,0.5493,0.5487,0.5483,0.5476,0.5475,0.5477,0.5476,0.5468,0.5469,0.547,0.5458,0.5458,0.5458,0,0,0.5676,0.5663,0.5657,0.5644,0.5625,0.5611,0.5609,0.5587,0.5577,0.5565,0.5549,0.5538,0.5517,0.5503,0.5494,0.5497,0.5485,0.5493,0.5502,0.5495,0.5496,0.5496,0.5496,0.5497,0.5493,0.5493,0.5493,0,0.569,0.5674,0.5656,0.5646,0.5636,0.5617,0.561,0.5598,0.5576,0.5569,0.5564,0.5535,0.5521,0.5506,0.5507,0.55,0.5497,0.5496,0.5497,0.5498,0.5498,0.5497,0.5498,0.5494,0.5494,0.5494,0.5494,0,0.5691,0.5681,0.5678,0.5656,0.5646,0.5638,0.5617,0.5609,0.5597,0.5583,0.5569,0.5551,0.5533,0.5529,0.5518,0.5512,0.5509,0.5501,0.5493,0.55,0.5499,0.5499,0.5496,0.5495,0.5495,0.5495,0,0,0.5719,0.5685,0.5684,0.5673,0.5649,0.564,0.563,0.5612,0.5605,0.5589,0.558,0.5561,0.5552,0.5541,0.5528,0.5522,0.5524,0.5514,0.5513,0.5515,0.5514,0.552,0.5521,0.5516,0.5516,0.5516,0.5515,0,0.5726,0.5708,0.569,0.5678,0.5666,0.5647,0.5638,0.5621,0.5607,0.5595,0.5579,0.5565,0.5556,0.5549,0.5542,0.5525,0.5523,0.5525,0.5505,0.5505,0.5511,0.552,0.5527,0.5528,0.5515,0.5515,0.5515,0,0.5732,0.5717,0.5704,0.5679,0.5673,0.5666,0.5647,0.5636,0.5616,0.5606,0.5592,0.5578,0.5565,0.5558,0.5538,0.554,0.553,0.5521,0.552,0.5518,0.551,0.5517,0.5528,0.5528,0.5515,0.5515,0.5515,0,0.5752,0.5728,0.5716,0.5708,0.5679,0.5673,0.5661,0.5641,0.5631,0.5614,0.5606,0.5588,0.5578,0.5564,0.5544,0.5541,0.5526,0.5518,0.5516,0.5517,0.5514,0.5515,0.5523,0.5509,0.5509,0.5509,0.5509,0,0.5762,0.5754,0.5725,0.5718,0.5708,0.5686,0.5677,0.5662,0.5644,0.5633,0.5615,0.5604,0.5579,0.5565,0.5549,0.5535,0.553,0.5521,0.5517,0.5522,0.5524,0.5516,0.5515,0.5509,0.5509,0.5509,0.5509,0,0.5783,0.5763,0.5749,0.5722,0.5715,0.5708,0.5685,0.5676,0.566,0.5646,0.5642,0.5616,0.5599,0.5577,0.5553,0.5542,0.5529,0.5523,0.5536,0.5533,0.5533,0.5533,0.5536,0.5535,0.5523,0.5523,0.5523,0,0.579,0.5784,0.5756,0.5747,0.5735,0.5721,0.571,0.5688,0.5677,0.5652,0.5647,0.5627,0.5611,0.5583,0.5562,0.5543,0.5536,0.5538,0.5533,0.5538,0.5535,0.5535,0.5534,0.554,0.554,0.5541,0.5541,0,0.5805,0.5795,0.578,0.5761,0.5749,0.5733,0.5716,0.5709,0.5683,0.5672,0.5653,0.5641,0.5615,0.5596,0.5573,0.5559,0.5545,0.5542,0.5541,0.5546,0.5554,0.5548,0.5539,0.5543,0.5542,0.5542,0.5542,0.5542,0.5819,0.5811,0.579,0.5774,0.5758,0.5742,0.5733,0.5715,0.5699,0.5677,0.5664,0.5646,0.5624,0.5592,0.5578,0.5562,0.5557,0.5556,0.5555,0.5555,0.5556,0.5556,0.5558,0.5558,0.5558,0.5558,0.5558,0,0.5832,0.5817,0.5802,0.5778,0.5765,0.5753,0.5733,0.5722,0.5706,0.5687,0.5671,0.5648,0.5629,0.5606,0.5584,0.5576,0.5569,0.5571,0.5571,0.5568,0.5562,0.5565,0.5577,0.5577,0.5577,0.5577,0.5577,0.5577,0.5837,0.5824,0.5811,0.5788,0.5773,0.5755,0.5744,0.5729,0.5713,0.5689,0.5673,0.5658,0.5636,0.5612,0.5593,0.5587,0.5579,0.5583,0.5575,0.557,0.5568,0.5567,0.5569,0.5582,0.5582,0.5581,0.5581,0.5581]}]]